Location: Mountain Grove
(34.0887°N, 86.6172°W)
Time: 22:04:21
(UTC+00:00)

NOSS 3-4 (C) - Pass Details

Date: 14 July 2020
Orbit: 891 x 1321 km, 63.4° (Epoch: 12 July)

Event Time Altitude Azimuth Distance (km) Brightness Sun altitude
Rises 03:03:22 0° 332° (NNW) 3,893 8.0 -21.3°
Reaches altitude 10° 03:05:57 10° 335° (NNW) 2,994 7.1 -21.7°
Maximum altitude 03:13:09 68° 58° (ENE) 1,287 4.0 -22.6°
Enters shadow 03:16:11 40° 127° (SE) 1,754 4.3 -23.0°
